User: anonymous   Login
Location: Unspecified
(0.0000°N, 0.0000°E)
Time: 22:18:36
(UTC+00:00)
Language:

Amsat-Oscar-8 - Orbit

View from above orbital plane
View from above orbital plane
View from above satellite
View from above satellite

Ground track
Ground track

The orbit data is extracted from the following two-line orbital elements,

1 10703U 78026B   18344.53273074  .00000124  00000-0  11551-3 0  9998
2 10703  98.9655 298.3389 0005107 276.8609 194.9371 13.99242189 80299
Epoch (UTC): 10 December 2018 12:47:07
Eccentricity: 0.0005107
inclination: 98.9655°
perigee height: 893 km
apogee height: 900 km
right ascension of ascending node: 298.3389°
argument of perigee: 276.8609°
revolutions per day: 13.99242189
mean anomaly at epoch: 194.9371°
orbit number at epoch: 8029

The dashed part of the orbit path shows where the satellite is in the earth's shadow,  

DLR